Location: Huntsville
(41.2590°N, 111.7678°W)
Time: 21:00:47
(UTC+00:00)

Explorer 7 - Pass Details

Date: 22 June 2021
Orbit: 484 x 676 km, 50.3° (Epoch: 30 July)

Event Time Altitude Azimuth Distance (km) Brightness Sun altitude
Rises 09:46:28 0° 300° (WNW) 2,953 10.5 -17.9°
Reaches altitude 10° 09:48:54 10° 296° (WNW) 2,014 9.6 -17.6°
Maximum altitude 09:53:25 55° 220° (SW) 732 7.0 -17.2°
Drops below altitude 10° 09:57:38 10° 142° (SE) 1,886 9.4 -16.7°
Sets 09:59:51 0° 138° (SE) 2,747 10.3 -16.5°
